[[{"header":{"parameterUnit":"m.s-1","parameterCategory":1,"la1":30.2991,"la2":30.254,"lo1":-89.0895,"lo2":-89.0444,"dy":0.0017,"dx":0.0017,"nx":28,"ny":28,"refTime":"2025-04-14T09:00:00:Z","depth":0,"parameterNumber":2,"parameterNumberName":"U-component_of_WINDS"},"data":[0,0,0,0,0,0,0,0,0,0,0,0,0,0,0,0,0,0,0,0,0,0,0,0,0,0,0,0,0,0,0,0,0,0,0,0,0,0,0,0,0,0,0,0,0,0,0,0,0,0,0,0,0,0,0,0,0,0,2.5492,2.5493,0,2.5549,2.5549,2.555,2.5553,2.5553,2.5552,2.5552,2.5608,2.561,2.5612,0,0,0,0,0,0,0,0,0,0,0,0,0,2.5386,2.5388,2.5492,2.5493,2.5494,2.5548,2.5549,2.555,2.5554,2.5553,2.5552,2.5551,2.5607,2.561,2.5612,0,0,0,0,0,0,0,0,0,0,0,0,0,2.5436,2.5388,2.5492,2.5502,2.5503,2.5548,2.5549,2.555,2.5554,2.5553,2.5552,2.5551,2.5607,2.561,2.5613,2.5651,0,0,2.5622,2.5624,0,0,0,0,0,0,0,0,2.5433,2.544,2.55,2.5501,2.5503,2.5543,2.5532,2.5584,2.5554,2.5535,2.5552,2.555,2.5587,2.5592,2.5604,2.5654,2.5656,2.5623,2.5625,2.5626,2.5627,0,0,0,0,0,0,0,2.543,2.5438,2.5514,2.5501,2.5503,2.5503,2.5509,2.5542,2.5565,2.5536,2.5537,2.5543,2.5588,2.5601,2.5606,2.5657,2.5623,2.5625,2.5627,2.5629,2.574,2.5741,0,0,0,0,0,0,2.5425,2.5435,2.5513,2.5516,2.5465,2.5506,2.5513,2.5531,2.5565,2.5569,2.5544,2.5543,2.5597,2.5602,2.5608,2.5654,2.5626,2.5629,2.5631,2.5738,2.574,2.5741,0,0,0,0,0,0,2.5422,2.5432,2.551,2.5476,2.5486,2.5509,2.5529,2.5533,2.5546,2.5571,2.5575,2.5554,2.5596,2.5603,2.564,2.5656,2.563,2.5633,2.5737,2.5739,2.574,2.5747,0,0,0,0,0,0,2.5419,2.5431,2.5446,2.5476,2.5487,2.5542,2.553,2.5535,2.5552,2.5551,2.5581,2.5585,2.5596,2.5635,2.5643,2.566,2.5636,2.5736,2.5738,2.574,2.5746,2.5749,2.5752,0,0,0,0,0,2.5415,2.5446,2.5447,2.5456,2.5507,2.5543,2.555,2.5562,2.5553,2.5568,2.5584,2.5584,2.5653,2.5639,2.5648,2.5666,2.5735,2.5737,2.574,2.5745,2.5748,2.5752,0,0,0,0,0,0,2.5417,2.545,2.5451,2.5492,2.5515,2.5544,2.5563,2.5566,2.5591,2.5589,2.5603,2.5609,2.5645,2.566,2.5643,2.5704,2.5693,2.5697,2.5694,2.5698,2.5701,2.5696,2.5638,0,0,0,0,0,2.5422,2.5449,2.5476,2.5509,2.5521,2.554,2.5556,2.5563,2.5587,2.5597,2.5615,2.5638,2.5665,2.5682,2.5708,2.5748,2.5754,2.5765,2.5768,2.577,2.5773,2.5794,2.5799,2.5749,2.5749,2.5749,0,0,2.5432,2.5454,2.547,2.551,2.5529,2.5556,2.5548,2.5577,2.5597,2.5601,2.5637,2.5651,2.5677,2.5716,2.5733,2.5728,2.5789,2.5773,2.5775,2.5777,2.5797,2.5802,2.5806,2.575,2.575,2.575,0,0,2.5465,2.5485,2.5514,2.5533,2.5561,2.5573,2.558,2.5609,2.5619,2.5655,2.5658,2.5682,2.5728,2.5746,2.5762,2.5801,2.5802,2.5809,2.5824,2.5845,2.5849,2.5852,2.5865,2.587,2.5812,2.5813,2.5813,0,2.5475,2.5516,2.5529,2.5558,2.5575,2.558,2.561,2.5627,2.5662,2.5673,2.5668,2.5725,2.5743,2.5785,2.5795,2.5807,2.5815,2.5805,2.5847,2.5851,2.5854,2.5867,2.5872,2.5813,2.5813,2.5813,2.5813,0,2.5526,2.5554,2.5575,2.5609,2.5628,2.5657,2.5674,2.5692,2.5697,2.571,2.5746,2.5768,2.5799,2.5809,2.5815,2.5852,2.5848,2.5845,2.5833,2.586,2.5871,2.5877,2.5814,2.5814,2.5814,2.5813,0,0,2.5561,2.5601,2.5608,2.5623,2.5655,2.5677,2.5706,2.5735,2.575,2.5774,2.5798,2.5837,2.5834,2.5851,2.5859,2.5877,2.5905,2.5871,2.5872,2.5876,2.5946,2.5948,2.5953,2.5906,2.5907,2.5908,2.5943,0,2.5596,2.5648,2.5661,2.5705,2.5731,2.5736,2.5761,2.5783,2.5796,2.5819,2.5833,2.586,2.5854,2.5864,2.5883,2.5898,2.5919,2.5896,2.5928,2.5929,2.592,2.596,2.5962,2.5994,2.5948,2.5949,2.595,0,2.5645,2.567,2.5717,2.5744,2.5756,2.5778,2.5806,2.5828,2.5853,2.586,2.588,2.5885,2.5915,2.5903,2.5943,2.5927,2.5941,2.595,2.5952,2.5954,2.594,2.5962,2.6005,2.6009,2.5957,2.5957,2.5956,0,2.5664,2.571,2.5744,2.5757,2.5789,2.5805,2.5819,2.5842,2.5859,2.5883,2.5894,2.5922,2.5936,2.5957,2.5969,2.596,2.6008,2.5998,2.6015,2.6015,2.6024,2.6023,2.6069,2.6035,2.6035,2.6035,2.6035,0,2.5702,2.573,2.5753,2.5773,2.5805,2.5819,2.5849,2.5863,2.5884,2.5907,2.5913,2.5935,2.595,2.5974,2.5984,2.6015,2.6022,2.6028,2.603,2.6027,2.6026,2.6036,2.6034,2.6036,2.6036,2.6036,2.6035,0,2.5729,2.5745,2.5782,2.581,2.5818,2.584,2.5863,2.5883,2.5896,2.5925,2.5933,2.5953,2.598,2.5995,2.603,2.6037,2.6071,2.6073,2.6063,2.6064,2.608,2.6078,2.6132,2.6139,2.6102,2.6102,2.6102,0,2.5752,2.5773,2.5804,2.582,2.5835,2.586,2.5878,2.5892,2.5909,2.5938,2.5954,2.5982,2.6005,2.6049,2.6066,2.6093,2.6094,2.6111,2.6098,2.6094,2.6093,2.6091,2.6093,2.6113,2.6114,2.6114,2.6114,0,2.579,2.5797,2.5822,2.5849,2.587,2.5892,2.5914,2.5926,2.5944,2.5963,2.5992,2.601,2.6045,2.6072,2.61,2.6114,2.6116,2.6118,2.6124,2.612,2.6113,2.6116,2.6068,2.6117,2.6117,2.6116,2.6116,2.6116,2.5815,2.5834,2.5858,2.5885,2.5904,2.5924,2.5944,2.5959,2.5983,2.6013,2.602,2.605,2.6072,2.611,2.6125,2.6147,2.6144,2.6152,2.6154,2.6155,2.6155,2.611,2.6153,2.6153,2.6153,2.6153,2.6153,0,2.5852,2.5868,2.5893,2.5924,2.5945,2.5946,2.5971,2.5988,2.6014,2.6036,2.6058,2.609,2.6117,2.6136,2.6163,2.6178,2.6179,2.6184,2.6183,2.6186,2.6157,2.615,2.6182,2.6182,2.6182,2.6182,2.6182,2.6182,2.5874,2.5907,2.5916,2.5957,2.5973,2.6003,2.6016,2.6034,2.6052,2.6087,2.6109,2.6122,2.6142,2.6171,2.6195,2.62,2.6209,2.6213,2.6218,2.6191,2.6188,2.6185,2.6177,2.6215,2.6215,2.6244,2.6244,2.6244]},{"header":{"parameterUnit":"m.s-1","parameterCategory":1,"la1":30.2991,"la2":30.254,"lo1":-89.0895,"lo2":-89.0444,"dy":0.0017,"dx":0.0017,"nx":28,"ny":28,"refTime":"2025-04-14T09:00:00:Z","depth":0,"parameterNumber":3,"parameterNumberName":"V-component_of_WINDS"},"data":[0,0,0,0,0,0,0,0,0,0,0,0,0,0,0,0,0,0,0,0,0,0,0,0,0,0,0,0,0,0,0,0,0,0,0,0,0,0,0,0,0,0,0,0,0,0,0,0,0,0,0,0,0,0,0,0,0,0,4.4015,4.4015,0,4.4011,4.4011,4.4011,4.3986,4.3986,4.3985,4.3984,4.398,4.3981,4.3981,0,0,0,0,0,0,0,0,0,0,0,0,0,4.4002,4.4002,4.4015,4.4015,4.4015,4.4011,4.4011,4.4011,4.3986,4.3986,4.3985,4.3984,4.398,4.398,4.3981,0,0,0,0,0,0,0,0,0,0,0,0,0,4.4004,4.4002,4.4015,4.4002,4.4001,4.4011,4.4011,4.4011,4.3987,4.3986,4.3985,4.3984,4.398,4.398,4.3981,4.4003,0,0,4.3983,4.3983,0,0,0,0,0,0,0,0,4.4004,4.4004,4.4004,4.4003,4.4002,4.3998,4.4005,4.4009,4.3987,4.3992,4.3984,4.3983,4.3987,4.3987,4.3988,4.4003,4.4003,4.3983,4.3984,4.3984,4.3984,0,0,0,0,0,0,0,4.4004,4.4004,4.4014,4.4004,4.4003,4.3997,4.3996,4.4005,4.3995,4.3992,4.399,4.399,4.3986,4.3988,4.3988,4.4003,4.3983,4.3984,4.3984,4.3984,4.4036,4.4037,0,0,0,0,0,0,4.4005,4.4004,4.4014,4.4014,4.4001,4.3998,4.3997,4.4,4.3994,4.3993,4.399,4.3988,4.3987,4.3987,4.3988,4.4013,4.3984,4.3984,4.3985,4.4035,4.4037,4.4038,0,0,0,0,0,0,4.4005,4.4006,4.4014,4.4009,4.4009,4.3999,4.4003,4.4001,4.4002,4.3994,4.3992,4.3994,4.3986,4.3987,4.4,4.4013,4.3985,4.3985,4.4034,4.4036,4.4037,4.4065,0,0,0,0,0,0,4.4005,4.4006,4.4015,4.4009,4.4009,4.4026,4.4004,4.4001,4.4004,4.4001,4.3996,4.3995,4.3985,4.3999,4.4,4.4013,4.3986,4.4033,4.4035,4.4037,4.4063,4.4068,4.4071,0,0,0,0,0,4.4004,4.4023,4.4015,4.4017,4.402,4.4027,4.4027,4.4017,4.4005,4.4013,4.4008,4.3995,4.4011,4.4,4.4002,4.4015,4.4032,4.4034,4.4037,4.4061,4.4067,4.4071,0,0,0,0,0,0,4.403,4.4022,4.4013,4.403,4.403,4.4023,4.4033,4.4023,4.4025,4.4023,4.4009,4.4008,4.4023,4.4021,4.4009,4.4037,4.402,4.4022,4.4038,4.4043,4.4047,4.4047,4.3986,0,0,0,0,0,4.4037,4.4044,4.4037,4.4052,4.4053,4.4043,4.4046,4.4038,4.4036,4.4036,4.4031,4.4031,4.4036,4.4039,4.4043,4.4063,4.4062,4.4073,4.4077,4.408,4.4083,4.4093,4.4098,4.4045,4.4045,4.4045,0,0,4.4053,4.405,4.4055,4.4057,4.4056,4.4063,4.4043,4.4051,4.4057,4.4037,4.4049,4.4046,4.4044,4.4061,4.4068,4.4059,4.4097,4.4083,4.4086,4.4086,4.4096,4.4101,4.4105,4.4046,4.4046,4.4046,0,0,4.4086,4.4084,4.4096,4.4096,4.4094,4.4088,4.4091,4.4086,4.4083,4.4095,4.408,4.4087,4.4096,4.4095,4.4096,4.4129,4.4118,4.4131,4.4152,4.4163,4.4167,4.4171,4.4183,4.4187,4.4134,4.4134,4.4134,0,4.4105,4.4116,4.4104,4.4114,4.4116,4.4099,4.4112,4.4112,4.4112,4.4113,4.4103,4.4115,4.4112,4.4129,4.4137,4.4138,4.4141,4.4131,4.4167,4.4171,4.4174,4.4185,4.419,4.4135,4.4135,4.4135,4.4135,0,4.414,4.4148,4.4159,4.4159,4.4162,4.4174,4.4164,4.4169,4.4161,4.4155,4.4168,4.4165,4.4168,4.4171,4.4163,4.4187,4.4181,4.417,4.4152,4.4181,4.4191,4.4196,4.4138,4.4137,4.4137,4.4136,0,0,4.4188,4.4183,4.4187,4.4187,4.4184,4.419,4.4201,4.4204,4.4209,4.4209,4.4218,4.4226,4.4216,4.4217,4.4209,4.4218,4.4245,4.4205,4.4205,4.4213,4.4271,4.428,4.4285,4.4237,4.4238,4.4239,4.4271,0,4.4219,4.4237,4.4228,4.4247,4.4255,4.4239,4.4249,4.4248,4.4244,4.4249,4.4244,4.425,4.4236,4.4236,4.4245,4.424,4.4256,4.4237,4.4245,4.4246,4.4246,4.429,4.4299,4.433,4.4275,4.4276,4.4276,0,4.4258,4.426,4.4281,4.4277,4.428,4.4289,4.4292,4.4297,4.4296,4.4292,4.4294,4.4284,4.4295,4.4278,4.4292,4.4279,4.4282,4.428,4.4281,4.4282,4.4263,4.4291,4.4339,4.4344,4.4282,4.4282,4.4281,0,4.429,4.4299,4.4313,4.4313,4.431,4.4316,4.4315,4.4313,4.4316,4.4319,4.4321,4.4324,4.4326,4.4329,4.4321,4.4309,4.4337,4.4319,4.4334,4.4334,4.434,4.434,4.4389,4.4342,4.4342,4.4342,4.4342,0,4.4326,4.4339,4.4328,4.4336,4.435,4.4339,4.4354,4.4351,4.435,4.4357,4.4344,4.4351,4.4339,4.4345,4.4339,4.4352,4.4353,4.435,4.4348,4.4351,4.4352,4.4353,4.435,4.4343,4.4343,4.4343,4.4342,0,4.4365,4.4358,4.4371,4.4367,4.4366,4.4377,4.4373,4.4381,4.4376,4.4386,4.4387,4.4379,4.4386,4.4378,4.4383,4.4379,4.4397,4.4392,4.4397,4.4396,4.4411,4.441,4.4463,4.4469,4.4419,4.4419,4.442,0,4.4388,4.4398,4.4395,4.4399,4.4399,4.4406,4.4409,4.4399,4.4403,4.4403,4.4411,4.4416,4.442,4.4432,4.4426,4.4431,4.4426,4.4444,4.4426,4.4429,4.4426,4.4426,4.4427,4.4448,4.4448,4.4449,4.4449,0,4.443,4.4426,4.4431,4.4436,4.444,4.4443,4.4444,4.4448,4.4438,4.4443,4.445,4.4453,4.4459,4.4465,4.4468,4.4467,4.4456,4.4455,4.4458,4.4462,4.4465,4.4463,4.4407,4.4453,4.4453,4.4453,4.4452,4.4452,4.4462,4.447,4.4469,4.4476,4.4476,4.4478,4.4485,4.4482,4.4487,4.4492,4.4485,4.4494,4.4494,4.4497,4.4497,4.4503,4.4496,4.4501,4.4502,4.4504,4.4506,4.4464,4.4504,4.4504,4.4504,4.4504,4.4504,0,4.4503,4.4502,4.4508,4.4511,4.4517,4.4507,4.4508,4.4513,4.4521,4.4522,4.4526,4.4534,4.454,4.4536,4.454,4.4547,4.4542,4.4548,4.4548,4.4548,4.4513,4.4509,4.4552,4.4552,4.4552,4.4552,4.4552,4.4552,4.4525,4.4539,4.4535,4.4549,4.4548,4.4556,4.4558,4.456,4.4561,4.4571,4.4575,4.4573,4.4571,4.4576,4.4581,4.458,4.4582,4.459,4.4587,4.4555,4.455,4.4545,4.4542,4.4591,4.4591,4.4621,4.4621,4.4622]}]]